YUNHAI 2-1B

导读

YUNHAI 2-1B是中国于2018年12月29日08:00发射的云海系列卫星,属于中国气象局和上海航天技术研究院主导的云海二号卫星星座组网卫星。主要用于开展空间环境探测,探测大气海洋物理要素,获取空间环境参数,为气象预报、空间天气监测等领域提供数据支撑。

Basic Information
目录编号:
43910
目录名称:
YUNHAI 2-1B
国际标识:
2018-112B
轨道中心:
EARTH
卫星名称:
YUNHAI 2-1B
卫星全名:
--
卫星状态:
在轨 (已飞行2816 天)
发射日期:
2018-12-29 UTC
国别 :
中国 (CN)
星等 :
--
This satellite is enrolled in the Space Conjunction Data Service (SCDS) and the current flight risk assessment level is: No High Risk
Orbit Information
数据来源 国际轨道数据
星历时间: 2026-09-14T06:26:27+0800
7小时前
查看轨道信息
半长轴: 7173.109km
偏心率: 0.0004943
轨道倾角: 50.009°
近地点辐角 173.082°
升交点赤经 91.134°
平近点角 187.017°
近地点: 791.426km
远地点: 798.518km
周期: 100.768分钟
每日圈数: 14.290309
Detailed Information
使用方式:
暂无
2D Orbit Map
3D Orbit Map
Orbit Altitude Analysis Chart
Orbit Inclination Analysis Chart
Orbit Comprehensive Analysis Chart
View Comprehensive Chart
Conjunction Data List
Event ID Objects TCA Miss Dist (km) Collision Risk Probability Collision Risk Index (CRI) Action
CDM_260915-065303-235604-391024
2026-09-15T
06:53:07+0000
1.018 km
极远距离
2.446548E-5 中风险 0.63
CDM_260910-125502-952404-391029
2026-09-10T
12:55:45+0000
2.540 km
极远距离
1.672075E-6 低风险 0.39
Miss Distance Evolution Trend with All Objects Subscribe to Flight Safety Assessment
Collision Probability Evolution Trend with All Objects Subscribe to Flight Safety Assessment